Dewpoint
53 54 54 55 59 58 58 57 56 56 55 55 55 54 54 54 54 54 55 55 55 55 54 54 54 54 48 42 35 38 51 52 41 30 29 24 20 15 12 10 13 16 18 20 19 37 31
52 53 54 54 57 59 58 57 57 56 55 55 54 54 53 53 53 54 55 55 54 54 54 53 53 54 47 35 26 31 36 43 33 25 26 23 20 19 16 19 13 16 21 26 30 29 28
50 53 54 54 54 58 58 58 57 56 56 55 54 54 53 53 53 54 54 54 53 53 53 53 53 50 41 34 30 30 36 33 30 30 27 26 22 21 21 22 19 23 25 26 28 30 30
49 52 53 54 53 54 58 58 57 56 56 55 54 53 53 52 53 53 53 53 53 53 53 53 53 48 38 34 30 27 29 32 32 29 30 29 29 25 25 28 14 18 22 22 22 28 30
48 50 53 53 53 53 56 57 57 56 56 55 54 53 52 52 53 53 53 52 52 52 53 52 50 47 35 33 28 26 27 25 26 29 31 30 29 28 27 25 19 20 15 17 19 21 25
47 48 52 52 54 52 55 57 57 56 56 55 54 53 52 52 53 53 52 52 51 51 51 46 44 38 39 26 23 22 25 24 26 30 30 29 29 27 25 20 15 15 12 14 14 17 20
48 47 50 52 53 52 52 56 57 56 55 55 53 52 52 52 53 53 51 48 45 46 43 32 31 28 26 28 28 25 25 21 24 29 26 28 25 20 21 18 15 17 14 16 14 15 13
46 47 49 51 51 52 52 54 57 56 55 54 53 52 52 53 53 52 50 42 37 43 41 39 31 28 27 29 25 21 22 19 23 23 25 24 26 25 21 20 16 12 16 15 9 9 7
47 47 48 48 51 52 51 52 56 56 55 54 53 52 52 52 52 50 45 39 39 42 40 37 35 20 23 26 25 20 20 19 20 24 22 24 31 35 26 22 13 12 21 22 21 18 10
47 47 47 47 50 50 52 51 54 56 55 54 52 52 52 52 48 45 42 42 41 43 37 29 26 21 25 25 23 21 19 18 18 21 30 32 31 31 26 15 14 21 28 22 24 26 12
47 47 47 47 50 50 51 50 48 56 55 54 52 52 52 51 50 44 45 42 43 48 31 23 23 21 23 21 19 19 19 18 19 21 25 32 30 28 22 18 22 26 25 26 17 14 19
46 47 47 47 49 49 51 50 48 53 55 54 52 52 52 50 49 49 49 51 43 40 27 16 15 19 20 19 18 16 17 20 19 20 22 28 33 31 26 22 20 28 26 20 19 22 17
44 46 47 47 48 49 50 50 48 51 55 54 52 52 51 46 43 46 48 51 39 29 21 18 15 19 19 20 18 14 17 16 16 18 16 25 19 23 25 19 21 20 17 18 27 27 15
43 45 46 47 48 49 50 49 48 51 54 53 51 52 51 48 48 50 53 46 30 23 26 14 15 19 18 18 16 16 13 13 13 16 13 23 21 22 22 19 30 29 22 26 20 22 20
41 43 45 46 47 49 50 49 48 50 53 53 51 50 48 50 51 52 48 39 30 27 23 20 14 16 17 16 15 15 13 13 14 14 14 19 24 32 26 19 28 26 20 24 17 28 21
40 41 43 46 46 48 49 49 48 51 53 51 48 45 43 50 53 50 45 38 32 29 23 18 14 15 15 15 14 15 14 16 13 12 24 29 29 35 28 24 23 20 21 20 17 14 12
40 41 44 45 45 47 49 49 48 51 51 51 46 39 41 51 52 45 38 37 35 31 27 23 16 15 14 14 15 15 13 15 15 24 25 28 30 27 24 21 13 24 22 16 14 19 18
40 41 43 43 45 46 48 49 48 51 51 50 44 36 47 54 42 35 36 35 33 34 28 26 24 18 16 15 16 14 13 16 23 24 23 21 21 20 21 22 22 22 20 20 22 18 21
39 39 40 42 45 45 46 47 48 50 51 48 40 42 52 49 33 33 33 35 32 32 30 27 28 22 20 17 16 16 16 33 28 25 25 25 23 19 18 21 24 23 18 18 19 24 22
39 38 39 40 43 45 45 47 48 50 51 50 39 39 49 49 39 30 31 33 32 33 28 25 26 23 20 20 21 21 20 33 33 31 31 33 25 19 18 16 21 22 23 19 20 24 23
38 38 38 38 40 43 44 47 48 49 50 50 44 37 44 41 42 34 34 32 30 29 30 29 25 24 20 21 20 20 22 35 34 35 31 29 21 17 16 18 19 22 22 19 18 20 21
37 39 39 40 40 42 44 46 48 49 50 48 41 39 42 38 39 36 32 35 30 30 26 28 27 23 21 22 21 21 25 33 30 35 30 31 26 28 26 26 23 23 21 19 19 18 16
37 39 41 40 43 42 44 46 47 47 50 45 43 46 44 39 38 34 34 36 33 29 27 26 28 27 26 27 31 36 31 33 30 34 32 31 32 31 28 26 23 20 21 21 19 18 18
36 41 40 43 40 43 46 47 47 48 49 46 42 45 45 37 36 33 33 35 33 29 28 29 32 28 36 39 37 35 34 34 34 34 34 33 34 34 28 22 17 19 17 14 16 15 13
38 38 41 41 44 45 46 47 48 48 50 49 44 48 48 40 35 32 32 35 34 30 33 38 39 40 40 39 37 35 35 30 31 30 32 33 35 32 27 22 20 19 15 16 17 17 20
39 40 41 41 44 45 45 46 47 48 48 49 49 51 52 44 36 30 33 34 34 33 40 43 42 43 40 40 37 31 29 27 26 29 28 28 34 29 27 25 20 24 22 22 21 15 21
40 41 42 43 44 45 45 46 46 46 46 44 46 49 50 47 40 33 33 34 35 41 43 41 41 40 42 43 36 30 28 26 26 31 33 34 34 31 31 29 31 25 24 26 18 28 28
41 42 42 43 44 45 46 46 45 46 45 45 44 48 49 49 42 39 35 33 34 41 41 44 40 39 41 35 35 38 36 32 27 29 34 34 35 33 35 34 27 23 24 24 33 29 30
41 42 43 44 44 45 46 46 46 47 47 47 45 50 51 49 48 50 49 49 48 48 43 43 38 40 42 38 40 43 38 37 36 29 27 27 32 33 34 32 29 24 27 30 31 32 34
Wind_Speed
14 12 12 13 18 18 17 16 15 14 13 12 11 12 13 15 17 17 18 18 17 15 14 14 12 12 10 9 14 5 9 7 8 12 13 12 9 10 14 15 14 16 10 13 4 18 3
15 15 13 12 14 18 18 17 16 15 14 12 11 12 13 14 16 17 18 17 16 13 14 13 11 11 6 12 9 7 4 8 9 13 13 13 9 11 13 15 12 3 3 8 11 6 3
17 17 16 13 14 16 19 18 17 16 14 13 12 12 13 14 15 17 18 17 15 13 13 13 9 7 11 21 16 6 6 8 5 11 12 14 11 10 3 12 6 11 14 9 2 4 2
18 17 17 15 14 15 20 19 18 17 15 13 12 12 13 13 15 17 17 16 14 13 12 13 6 8 9 12 14 19 16 14 16 8 10 12 9 11 10 10 4 5 8 3 2 10 12
20 19 19 17 15 16 17 20 19 18 16 14 13 12 12 12 15 17 17 16 15 13 11 11 4 8 11 1 12 17 15 14 4 4 6 3 4 6 9 8 1 3 11 17 11 16 7
22 21 19 18 15 15 15 18 20 18 17 14 13 12 11 11 14 16 16 15 11 9 9 11 13 11 11 11 9 11 6 3 7 7 5 5 6 9 8 11 12 16 18 14 11 12 15
23 22 20 19 17 15 15 17 20 19 18 15 13 12 10 11 12 12 12 10 6 5 10 12 10 8 7 7 9 9 16 8 10 9 6 7 8 12 15 18 14 7 8 15 16 12 14
25 25 22 20 19 17 15 17 19 20 18 17 14 12 9 9 10 6 4 8 8 8 12 21 23 21 16 8 9 14 14 9 13 9 2 12 13 7 10 18 21 14 7 11 14 11 13
27 26 25 22 22 20 17 14 18 20 19 17 15 12 9 7 5 4 12 18 16 18 8 18 24 20 16 16 16 15 12 15 6 5 8 9 9 27 24 28 21 14 10 14 13 8 10
27 27 26 25 25 22 19 15 17 20 20 18 16 13 9 4 3 9 11 14 17 10 6 12 17 15 16 10 15 21 20 15 8 6 13 6 19 27 27 6 8 5 10 12 18 14 13
28 28 28 26 26 23 20 17 15 21 21 20 18 14 12 18 11 8 9 3 5 6 4 12 18 9 16 17 7 16 6 12 14 3 13 18 14 24 21 6 4 5 17 21 13 12 5
29 29 30 29 27 24 21 19 18 19 22 21 19 16 11 6 7 16 12 15 3 6 8 6 12 14 23 17 15 9 15 12 8 11 16 16 16 30 3 3 0 16 14 14 11 13 13
31 29 31 30 28 26 24 20 19 18 24 22 21 20 14 11 8 12 9 5 7 11 6 11 19 17 20 16 17 12 14 21 16 11 10 0 14 5 9 9 6 7 11 8 8 10 10
34 30 30 32 31 28 25 23 19 18 23 23 21 17 13 16 14 6 7 9 14 13 24 2 16 18 23 19 16 14 17 20 22 21 14 13 13 13 10 6 5 22 2 2 4 4 9
35 31 26 34 31 29 27 24 21 20 21 22 20 10 12 13 17 8 14 20 15 12 20 11 14 19 21 21 11 17 18 21 20 22 20 2 2 13 18 3 13 15 5 3 8 3 5
41 35 30 31 36 31 29 26 22 20 22 29 15 12 17 17 16 11 16 28 20 28 13 12 17 18 19 21 15 13 16 16 21 21 11 6 6 20 25 5 6 7 6 4 3 2 6
39 38 31 22 36 34 30 28 24 21 28 30 15 10 10 20 17 14 27 25 27 25 18 12 17 17 20 18 17 15 11 11 20 8 3 8 19 13 9 9 9 7 9 7 11 6 0
38 34 31 26 36 35 33 29 26 25 32 24 9 14 25 27 18 18 27 27 28 27 14 13 18 19 16 17 17 21 18 16 12 8 9 15 6 7 12 2 5 11 13 9 8 8 4
34 34 29 30 34 36 34 31 27 29 36 13 12 12 22 23 22 24 22 29 31 29 24 18 18 15 15 18 17 18 12 5 6 8 4 6 6 10 13 8 9 10 14 11 11 2 7
33 32 31 32 27 38 37 33 29 30 36 12 12 16 8 21 19 29 31 27 32 29 25 17 16 18 17 17 11 12 12 5 3 2 3 5 7 12 12 14 5 7 12 14 13 6 9
35 35 33 31 36 38 37 34 31 31 37 14 7 16 13 22 30 25 27 26 33 32 26 19 22 21 17 13 15 14 14 7 4 2 2 4 11 15 18 17 14 10 15 9 12 14 17
31 31 31 34 37 40 36 34 32 28 37 19 12 13 20 9 27 31 31 37 34 33 24 26 17 22 20 17 17 13 13 9 8 8 10 6 8 7 11 12 15 12 17 18 18 19 19
34 34 35 30 40 38 36 32 31 29 31 11 21 7 7 22 31 33 36 32 34 30 25 28 20 19 19 13 6 8 5 17 10 14 13 10 5 3 4 5 7 10 15 20 20 19 16
35 26 29 32 34 31 29 29 30 30 40 15 21 5 8 19 32 39 31 31 35 28 24 17 12 25 9 16 15 16 14 9 6 4 10 8 7 3 2 1 5 12 2 4 5 9 11
35 31 31 33 32 30 29 28 30 29 37 17 16 7 7 17 30 32 36 31 28 25 13 14 7 8 21 12 7 6 3 3 3 5 4 5 7 4 5 8 10 14 2 2 1 3 13
36 34 32 30 29 29 28 29 27 27 21 23 18 8 9 10 29 37 36 30 23 15 6 2 8 12 8 5 5 6 7 7 9 7 0 3 8 7 4 4 6 1 6 3 2 4 8
36 37 33 31 28 28 29 30 27 25 26 22 11 19 12 6 16 34 31 27 29 15 8 12 4 6 2 5 5 5 6 5 8 9 6 3 2 9 6 4 6 2 6 1 4 3 6
35 33 29 28 27 27 29 32 30 29 31 25 21 21 10 5 22 28 24 19 21 22 14 11 12 3 8 5 6 4 2 5 4 9 9 10 10 6 6 3 8 7 7 2 5 6 9
32 30 28 27 28 28 30 33 31 33 27 27 16 19 19 20 5 13 13 17 10 7 18 21 5 13 8 7 4 5 3 2 3 7 13 8 8 6 10 6 7 7 10 8 8 7 9
Wind_Direction
286 283 292 307 239 237 239 242 249 257 265 273 282 293 302 307 310 311 312 312 310 311 307 302 309 325 320 259 258 182 114 125 169 198 223 246 248 245 252 251 252 230 264 317 294 162 101
283 280 273 283 277 240 238 237 243 251 259 267 276 288 298 302 307 310 309 307 306 308 301 299 304 322 266 270 277 138 140 140 184 204 232 256 260 276 291 302 260 247 9 30 8 107 137
277 273 269 267 281 261 238 234 239 245 251 260 270 283 294 303 306 307 306 304 303 301 292 290 299 292 269 248 288 321 197 242 258 210 240 249 260 271 270 286 12 102 57 2 241 173 206
271 277 267 262 266 274 251 234 237 242 246 250 261 275 288 298 302 304 304 300 296 287 285 279 293 275 260 274 250 248 256 238 243 234 238 273 308 267 296 348 274 148 93 307 225 218 219
267 271 268 265 256 264 257 239 236 240 242 245 254 268 283 296 301 304 302 295 285 275 263 270 262 222 273 226 233 239 232 243 138 213 223 295 259 240 232 241 85 119 230 225 224 223 182
255 262 265 260 248 261 261 240 235 238 239 238 249 262 276 289 299 304 302 288 295 278 238 243 259 275 255 241 210 235 204 236 216 157 192 239 217 220 209 207 209 208 224 219 228 194 231
248 252 254 254 251 254 260 248 233 234 235 234 241 254 267 283 294 303 315 278 250 199 231 234 215 243 312 1 293 228 244 196 225 192 205 251 209 210 224 220 234 256 248 226 205 184 222
242 243 244 248 250 250 257 252 239 228 227 224 231 242 255 275 292 293 279 255 6 9 296 243 248 256 271 284 276 214 204 230 206 223 82 249 330 283 247 238 247 283 290 229 161 175 221
240 238 239 242 244 246 248 261 240 228 223 218 220 231 237 265 273 231 232 249 286 354 271 280 214 232 236 224 241 228 187 229 236 226 239 242 193 277 259 245 243 265 123 311 359 283 222
240 236 234 239 238 239 243 250 254 226 218 214 211 214 216 199 232 240 247 248 249 288 282 251 194 221 227 231 235 241 194 224 239 190 82 341 274 262 280 255 275 345 330 192 170 244 221
244 238 232 231 234 232 234 239 257 226 214 208 206 201 200 201 331 237 29 17 142 210 286 162 182 181 196 206 231 217 197 205 247 2 175 197 302 289 255 210 37 166 240 269 258 275 189
244 242 231 226 224 227 229 232 245 239 208 202 197 193 186 211 238 259 329 317 173 225 239 181 154 204 208 206 231 224 201 223 244 216 249 152 211 250 77 285 35 175 223 243 271 295 234
242 238 237 222 220 223 224 225 232 239 203 198 191 185 183 230 222 211 231 267 204 225 224 188 181 190 216 203 223 215 198 205 217 217 224 172 240 227 181 212 183 228 267 269 25 320 234
238 238 235 228 216 213 217 218 222 226 200 191 184 179 220 236 261 295 209 211 224 205 237 66 194 195 209 214 213 206 227 210 210 230 239 170 236 244 203 248 79 321 264 16 324 256 322
238 235 239 232 214 207 211 208 213 213 194 171 152 197 229 221 243 235 212 212 205 235 197 230 202 201 208 221 213 209 223 213 213 222 248 248 160 5 311 238 156 221 268 108 285 101 319
238 231 229 240 215 206 203 201 202 201 179 153 174 203 225 204 188 218 218 224 221 242 287 199 225 212 210 216 192 216 207 227 223 211 174 138 16 288 250 232 221 258 341 288 207 281 271
229 227 222 264 211 204 196 196 195 189 169 173 189 208 208 178 162 210 218 215 229 243 248 271 225 223 223 214 194 229 223 213 223 155 243 160 178 201 167 214 253 182 245 241 262 266 160
224 222 217 238 211 200 195 192 189 179 173 170 189 208 153 146 181 212 218 215 227 240 235 241 268 244 220 228 207 224 214 216 206 229 207 226 296 265 228 316 346 319 295 233 219 264 195
219 219 219 226 217 197 192 190 184 178 177 163 180 183 157 169 202 209 207 223 227 233 231 209 241 244 247 237 213 211 217 45 109 200 232 239 231 262 277 229 205 238 251 248 272 147 237
213 216 211 229 247 193 189 188 183 184 186 187 176 181 180 212 225 201 199 211 223 237 235 227 227 237 239 234 212 210 216 124 131 161 63 332 244 247 246 259 333 240 239 251 232 205 241
214 215 209 227 239 196 189 187 185 189 186 197 207 207 174 197 207 216 198 211 211 220 224 242 232 221 228 216 232 216 214 122 147 127 186 228 244 259 264 272 285 284 295 264 256 250 239
206 207 207 209 235 198 188 188 185 188 185 201 194 207 171 212 192 207 208 215 209 219 197 224 233 214 211 218 228 205 213 160 177 178 206 203 242 284 291 298 292 278 277 278 272 275 273
201 206 201 231 202 189 187 185 190 186 179 194 216 262 216 207 189 194 208 211 218 216 211 205 210 229 213 223 193 71 230 180 203 172 197 197 228 174 251 335 345 300 256 252 262 266 264
187 191 204 194 191 185 186 186 187 186 195 220 204 230 241 198 186 203 201 207 214 207 219 202 208 218 132 113 93 76 69 77 111 117 196 191 215 129 215 123 257 246 40 343 330 313 306
187 190 202 191 186 185 185 187 184 183 199 222 210 222 242 223 189 190 200 210 219 216 192 259 155 118 150 132 112 101 78 57 157 157 173 212 145 169 190 211 272 302 169 355 4 330 36
183 186 195 189 186 185 184 187 187 183 188 222 252 278 267 214 206 190 195 194 206 185 154 166 130 142 173 101 125 181 186 207 181 149 104 174 161 172 173 215 226 158 115 69 360 230 51
180 187 186 186 186 183 184 187 182 183 206 215 247 241 265 224 234 189 197 186 204 147 121 148 198 128 350 108 151 165 207 213 188 162 185 124 159 193 170 219 281 96 121 119 222 80 25
177 180 183 185 187 185 183 186 184 185 204 204 234 245 264 257 212 193 191 198 210 154 129 248 181 155 145 137 146 154 145 196 239 183 165 179 168 187 183 182 258 139 132 168 61 12 15
176 178 181 187 189 186 181 187 183 194 192 192 236 230 225 245 134 79 77 54 51 2 134 187 179 156 166 145 131 120 149 132 167 203 212 197 185 182 176 215 149 116 67 67 36 21 18